Regional Weather Roundup
Issued by NWS

Home | Current Version | Previous Version | Graphics & Text | Print | Product List | Glossary Off
Versions: 1 2 3 4 5 6 7 8 9 10 11 12 13 14 15 16 17 18 19 20 21 22 23 24 25 26 27 28 29 30 31 32 33 34 35 36 37 38 39 40 41 42 43 44 45 46 47 48 49 50

000
ASUS43 KLSX 290410
RWRMO

WEATHER SUMMARY FOR MISSOURI
NATIONAL WEATHER SERVICE SPRINGFIELD MO
1100 PM CDT WED SEP 28 2016

NOTE: "FAIR" INDICATES FEW OR NO CLOUDS BELOW 12,000 FEET WITH NO
       SIGNIFICANT WEATHER AND/OR OBSTRUCTIONS TO VISIBILITY.
       CURRENT SKY AND/OR WEATHER CONDITIONS ARE NOT AVAILABLE FOR
       CHILLICOTHE AND FARMINGTON.

MOZ001>031-035>038-043-044-053-054-290500-
...NORTHERN AND WESTERN MISSOURI...

CITY           SKY/WX    TMP DP  RH WIND       PRES   REMARKS
KANSAS CTY INT CLEAR     52  46  80 NW5       30.28R
KANSAS C DTWN  CLEAR     57  47  69 N6        30.27R
LEE`S SUMMIT   CLEAR     55  47  74 N9        30.27R
ST JOSEPH      CLEAR     52  48  86 N6        30.28R
CHILLICOTHE      N/A     55  49  80 CALM      30.27R
KIRKSVILLE     CLEAR     52  48  86 NW7       30.23R

$$
MOZ066>068-077>081-088>096-101>105-290500-
...SOUTHWEST MISSOURI...

CITY           SKY/WX    TMP DP  RH WIND       PRES   REMARKS
SPRINGFIELD    CLEAR     56  46  69 N12       30.20R
JOPLIN         CLEAR     56  48  74 N8        30.23R
BRANSON        PTCLDY    55  46  71 N7        30.20R

$$
MOZ032>034-039>042-045>050-055>058-069>072-290500-
...CENTRAL MISSOURI...

CITY           SKY/WX    TMP DP  RH WIND       PRES   REMARKS
COLUMBIA       CLEAR     54  49  83 NW9       30.20S
JEFFERSON CITY CLEAR     53  48  83 CALM      30.20R
ROLLA          CLEAR     51  46  83 NW6       30.18R
SEDALIA        CLEAR     55  48  77 N8        30.24R
WHITEMAN AFB   PTCLDY    53  50  91 N8        30.23R
OSAGE BEACH    CLEAR     51  48  89 CALM      30.21S

$$
MOZ051-052-059>065-290500-
...EAST CENTRAL MISSOURI...

CITY           SKY/WX    TMP DP  RH WIND       PRES   REMARKS
ST LOUIS INTL  PTCLDY    57  48  72 NW8       30.13S
SPIRIT OF STL  CLEAR     54  50  86 W6        30.14R
ST CHARLES     PTCLDY    57  51  80 NW8       30.13S

$$
MOZ072>076-082>087-097>100-106>115-290500-
...SOUTH CENTRAL AND SOUTHEAST MISSOURI...

CITY           SKY/WX    TMP DP  RH WIND       PRES   REMARKS
CAPE GIRARDEAU CLEAR     54  46  74 NW3       30.11R
FARMINGTON     CLEAR     55  47  74 NW7       30.14S
POPLAR BLUFF   CLEAR     54  49  83 NW5       30.12R
WEST PLAINS    CLEAR     54  45  71 N5        30.18R

$$




USA.gov is the U.S. government's official web portal to all federal, state and local government web resources and services.